TimeEST,TemperatureF,Dew PointF,Humidity,Sea Level PressureIn,VisibilityMPH,Wind Direction,Wind SpeedMPH,Gust SpeedMPH,PrecipitationIn,Events,Conditions,WindDirDegrees,DateUTC
12:51 AM,26.1,23.0,88,30.02,10.0,Calm,Calm,-,N/A,,Mostly Cloudy,0,2013-12-29 05:51:00
1:51 AM,25.0,23.0,92,30.03,10.0,Calm,Calm,-,N/A,,Mostly Cloudy,0,2013-12-29 06:51:00
2:51 AM,26.1,21.9,84,30.02,10.0,Calm,Calm,-,N/A,,Overcast,0,2013-12-29 07:51:00
3:51 AM,28.9,24.1,82,30.01,10.0,Calm,Calm,-,N/A,,Overcast,0,2013-12-29 08:51:00
4:51 AM,34.0,26.1,73,30.00,10.0,South,4.6,-,N/A,,Overcast,180,2013-12-29 09:51:00
5:51 AM,35.1,26.1,70,29.98,10.0,SSE,5.8,-,N/A,,Overcast,160,2013-12-29 10:51:00
6:51 AM,35.1,26.1,70,29.96,10.0,SSE,3.5,-,N/A,,Overcast,160,2013-12-29 11:51:00
7:51 AM,34.0,26.1,73,29.99,10.0,South,4.6,-,N/A,,Overcast,190,2013-12-29 12:51:00
8:51 AM,37.0,26.1,65,29.96,10.0,SSE,6.9,-,N/A,,Overcast,160,2013-12-29 13:51:00
9:51 AM,37.9,27.0,65,29.92,10.0,South,6.9,-,N/A,,Overcast,170,2013-12-29 14:51:00
10:51 AM,39.9,27.0,60,29.92,10.0,South,3.5,-,N/A,,Overcast,190,2013-12-29 15:51:00
11:51 AM,39.9,26.1,58,29.88,10.0,Variable,3.5,-,N/A,,Overcast,0,2013-12-29 16:51:00
12:51 PM,42.1,26.1,53,29.83,10.0,South,8.1,-,N/A,,Overcast,170,2013-12-29 17:51:00
1:51 PM,39.0,30.0,70,29.80,8.0,South,9.2,-,0.00,Rain,Light Rain,170,2013-12-29 18:51:00
2:51 PM,37.9,34.0,86,29.74,5.0,SE,5.8,-,0.03,Rain,Light Rain,140,2013-12-29 19:51:00
3:51 PM,37.0,34.0,89,29.69,5.0,Calm,Calm,-,0.12,Rain,Light Rain,0,2013-12-29 20:51:00
4:35 PM,35.6,33.8,93,29.65,2.5,North,5.8,-,0.12,,Overcast,350,2013-12-29 21:35:00
4:40 PM,35.6,33.8,93,29.65,1.5,NNW,8.1,-,0.14,Rain-Snow,Light Rain,340,2013-12-29 21:40:00
4:51 PM,35.1,34.0,96,29.66,1.2,NNW,6.9,-,0.18,Rain-Snow,Rain,340,2013-12-29 21:51:00
5:11 PM,35.6,33.8,93,29.65,1.2,NNW,5.8,-,0.06,Rain-Snow,Rain,340,2013-12-29 22:11:00
5:40 PM,33.8,32.0,93,29.64,1.5,NNW,9.2,-,0.16,Rain-Snow,Rain,340,2013-12-29 22:40:00
5:51 PM,34.0,32.0,92,29.65,1.5,NNW,9.2,-,0.20,Rain-Snow,Rain,340,2013-12-29 22:51:00
6:06 PM,33.8,32.0,93,29.63,1.5,NNW,6.9,-,0.06,Rain-Snow,Rain,340,2013-12-29 23:06:00
6:45 PM,33.8,30.2,87,29.61,2.0,North,8.1,-,0.14,Rain-Snow,Light Rain,360,2013-12-29 23:45:00
6:51 PM,33.1,30.9,92,29.62,2.0,North,8.1,-,0.15,Rain-Snow,Rain,360,2013-12-29 23:51:00
7:07 PM,33.8,30.2,87,29.59,1.2,North,8.1,-,0.03,Snow,Light Snow,360,2013-12-30 00:07:00
7:36 PM,33.8,30.2,87,29.60,2.0,North,8.1,-,0.09,Snow,Light Snow,350,2013-12-30 00:36:00
7:51 PM,33.1,30.9,92,29.62,1.5,NNW,6.9,-,0.10,Snow,Light Snow,330,2013-12-30 00:51:00
8:49 PM,33.8,30.2,87,29.62,1.5,NNW,5.8,-,0.08,Snow,Light Snow,330,2013-12-30 01:49:00
8:51 PM,33.1,30.9,92,29.63,1.5,NW,4.6,-,0.08,Snow,Light Snow,320,2013-12-30 01:51:00
9:24 PM,33.8,30.2,87,29.64,1.5,NW,8.1,-,0.02,Snow,Light Snow,320,2013-12-30 02:24:00
9:37 PM,33.8,30.2,87,29.65,3.0,NW,6.9,-,0.02,Snow,Light Snow,320,2013-12-30 02:37:00
9:47 PM,33.8,32.0,93,29.65,6.0,NW,6.9,-,0.03,Snow,Light Snow,320,2013-12-30 02:47:00
9:51 PM,34.0,32.0,92,29.66,6.0,NW,6.9,-,0.03,Snow,Light Snow,320,2013-12-30 02:51:00
10:41 PM,33.8,30.2,87,29.63,10.0,Calm,Calm,-,0.00,,Overcast,0,2013-12-30 03:41:00
10:51 PM,34.0,32.0,92,29.65,10.0,Calm,Calm,-,0.00,,Overcast,0,2013-12-30 03:51:00
11:51 PM,33.1,32.0,96,29.67,10.0,Calm,Calm,-,N/A,Fog,Overcast,0,2013-12-30 04:51:00